Location: Devore Heights
(34.2372°N, 117.4156°W)
Time: 02:28:15
(UTC+00:00)

Vanguard 2 Rocket - Pass Details

Date: 20 September 2024
Orbit: 553 x 3298 km, 32.9° (Epoch: 09 October)

Event Time Altitude Azimuth Distance (km) Brightness Sun altitude
Exits shadow 12:28:11 16° 277° (W) 4,167 9.7 -14.9°
Maximum altitude 12:40:07 65° 202° (SSW) 3,016 9.3 -12.5°
Drops below altitude 10° 12:59:39 10° 126° (SE) 6,245 11.9 -8.5°
Sets 13:04:35 0° 124° (ESE) 7,236 12.4 -7.5°
